7 * 24
多渠道服务支持
ZHUHAI-1 OHS-03 是由中国珠海宇航公司研制的一颗遥感卫星,主要用于高分辨率地球观测和商业遥感服务。该卫星具备高精度成像能力,可应用于城市规划、环境监测、灾害预警等领域。作为珠海系列卫星的一部分,OHS-03 采用先进的小型化卫星平台,具备较高的灵活性和稳定性。该卫星于近年成功发射,标志着中国在商业航天和遥感技术领域的进一步发展。
中国
(CN)
| 数据来源 | 国际轨道数据 |
| 星历时间: | 2024-09-27T05:33:56+0800 轨道信息已过期444天 |
| 半长轴: | 6633.752km |
| 偏心率: | 0.0008378 |
| 轨道倾角: | 97.101° |
| 近地点辐角 | 240.740° |
| 升交点赤经 | 321.727° |
| 平近点角 | 119.304° |
| 近地点: | 250.059km |
| 远地点: | 261.175km |
| 周期: | 89.619分钟 |
| 每日圈数: | 16.06808 |